FENGYUN 1C DEB, 31180

Orbit data source: Space-Track

FENGYUN 1C DEB, 31180 is space debris in SSO originally from a launch on Mon, 10 May 1999 UTC launched from the Taiyaun Space Center, China (TSC). Fengyun 1C debris stems from the Chinese weather satellite Fengyun-1C, which was intentionally destroyed by a Chinese anti-satellite missile in 2007. This event dramatically increased the amount of space debris, with thousands of trackable fragments posing hazards to satellites and human spaceflight. The Fengyun 1C debris cloud has become a focal point in discussions about space sustainability and the need for international regulations to prevent the creation of new debris.

Loading next visibility...
Identifier
31180, 1999-025BJJ
Orbit
SSO
Country
Flag of CNCN / PRC
Related business
Manufacturer
Unknown
Mission
Spacecraft
Bus & Motor
Unknown
Mass
Unknown
Launch date (UTC)
1999-05-10 (27 years ago)
Launch vehicle
Unknown
Launch site
Taiyaun Space Center, China (TSC)
Object type
Payload
Rocket body
Debris
Shape & HBR
Unknown shape, 0.1 m
Radar Cross Section
Medium (>0.1 m² and <1 m²)

Expand to show TLE details & history
Last TLE update: 2 weeks ago

TLE from 2 weeks ago
0 FENGYUN 1C DEB
1 31180U 99025BJJ 26150.62245669  .00000261  00000-0  14593-3 0  9996
2 31180  99.2411 281.1330 0496266 337.0790  84.2055 13.70589929663801
Epoch: 2026-05-30T14:56Z
TLE epoch observation values (Epoch: 2026-05-30T14:56:20.258Z)
Latitude
65.3639°
Longitude
148.24567°
Altitude
989.805 km
Speed
7.372 km/s
True Right ascension
17h 21m 51s
True Declination
65° 14' 15"
Sunlit
Object was in daylight at epoch
Visualization orbit readout
Latitude
Unknown
Longitude
Unknown
Altitude
Unknown
Speed
Unknown
Apparent Right ascension
Unknown
Apparent Declination
Unknown
Sunlit
N/A
Visualization observer readout
Local Sidereal Time
01:38:39
Azimuth
Unknown
Elevation
Unknown
Doppler factor
Unknown
Orbital elements
Apogee altitude
1,360.583 km
Perigee altitude
628.806 km
Semi-major axis
7,372.831 km
Eccentricity
0.04963
Inclination
99.2411°
RAAN
281.133°
Arg. of periapsis
337.079°
True anomaly
89.88954°
Mean anomaly
84.2055°
Eccentric anomaly
87.04511°
Mean motion
3.4284 °/min
Orbital period
105.01 mins
BSTAR
0.00014593
Loading maneuver chart data...
Computing Atmospheric mass density...
Loading historical data...
Loading historical data...
Loading historical data...
Loading historical data...
Loading historical data...
Loading historical data...
Loading historical data...

Documentation

Showing up to 5 results
|